Radiation Dose at Monitoring Post of Fukushima Daini Nuclear Power Station
Date,Time,MP-1(microSv/h),MP-2(microSv/h),MP-3(microSv/h),MP-4(microSv/h),MP-5(microSv/h),MP-6(microSv/h),MP-7(microSv/h),Wind Direction,Wind Velocity(m/s),Rain
2015/12/01,00:00,0.453,0.267,0.477,0.464,0.441,0.225,0.195,west,12.5,No
2015/12/01,00:10,0.454,0.268,0.477,0.463,0.445,0.225,0.197,west,14.0,No
2015/12/01,00:20,0.452,0.267,0.480,0.463,0.441,0.225,0.195,west,13.4,No
2015/12/01,00:30,0.452,0.267,0.476,0.463,0.442,0.225,0.195,west,13.4,No
2015/12/01,00:40,0.455,0.269,0.479,0.462,0.443,0.224,0.196,west,14.0,No
2015/12/01,00:50,0.452,0.267,0.479,0.461,0.444,0.225,0.195,west,13.1,No
2015/12/01,01:00,0.455,0.268,0.478,0.462,0.442,0.225,0.195,west,14.0,No
2015/12/01,01:10,0.454,0.270,0.482,0.462,0.443,0.225,0.195,west-northwest,11.2,No
2015/12/01,01:20,0.452,0.269,0.477,0.461,0.442,0.224,0.196,west-northwest,10.9,No
2015/12/01,01:30,0.454,0.268,0.478,0.461,0.443,0.225,0.195,west-northwest,6.6,No
2015/12/01,01:40,0.453,0.269,0.480,0.462,0.444,0.225,0.195,northwest,3.3,No
2015/12/01,01:50,0.454,0.268,0.477,0.461,0.442,0.225,0.195,north-northeast,2.6,No
2015/12/01,02:00,0.455,0.269,0.480,0.463,0.443,0.224,0.195,northeast,2.5,No
2015/12/01,02:10,0.451,0.270,0.477,0.462,0.444,0.225,0.195,east,1.2,No
2015/12/01,02:20,0.453,0.268,0.479,0.462,0.441,0.224,0.195,-,CALM,No
2015/12/01,02:30,0.455,0.268,0.482,0.462,0.441,0.225,0.196,west,1.4,No
2015/12/01,02:40,0.452,0.270,0.478,0.460,0.444,0.224,0.195,northwest,6.9,No
2015/12/01,02:50,0.454,0.267,0.479,0.463,0.443,0.225,0.196,northwest,10.9,No
2015/12/01,03:00,0.455,0.269,0.480,0.463,0.442,0.224,0.195,west-northwest,9.2,No
2015/12/01,03:10,0.452,0.268,0.477,0.461,0.442,0.225,0.195,northwest,6.5,No
2015/12/01,03:20,0.455,0.269,0.481,0.462,0.441,0.225,0.196,north-northwest,6.5,No
2015/12/01,03:30,0.453,0.268,0.480,0.462,0.442,0.224,0.195,north-northwest,7.1,No
2015/12/01,03:40,0.453,0.269,0.478,0.460,0.443,0.224,0.196,north,7.4,No
2015/12/01,03:50,0.454,0.268,0.480,0.461,0.442,0.224,0.196,north,6.2,No
2015/12/01,04:00,0.453,0.268,0.480,0.461,0.443,0.224,0.197,west-northwest,9.5,No
2015/12/01,04:10,0.455,0.269,0.479,0.461,0.442,0.225,0.195,west-northwest,14.2,No
2015/12/01,04:20,0.454,0.268,0.481,0.463,0.443,0.224,0.196,west-northwest,13.6,No
2015/12/01,04:30,0.452,0.267,0.478,0.461,0.443,0.226,0.194,west-northwest,14.8,No
2015/12/01,04:40,0.455,0.268,0.481,0.461,0.443,0.224,0.195,northwest,15.1,No
2015/12/01,04:50,0.454,0.267,0.479,0.464,0.443,0.225,0.195,northwest,15.9,No
2015/12/01,05:00,0.453,0.268,0.476,0.461,0.445,0.225,0.195,northwest,15.6,No
2015/12/01,05:10,0.456,0.270,0.481,0.463,0.442,0.224,0.195,northwest,15.7,No
2015/12/01,05:20,0.453,0.268,0.479,0.463,0.444,0.224,0.195,northwest,14.5,No
2015/12/01,05:30,0.455,0.267,0.481,0.463,0.444,0.225,0.195,northwest,14.5,No
2015/12/01,05:40,0.455,0.268,0.480,0.462,0.445,0.225,0.195,northwest,14.8,No
2015/12/01,05:50,0.453,0.268,0.479,0.464,0.442,0.226,0.196,northwest,13.4,No
2015/12/01,06:00,0.455,0.268,0.480,0.460,0.443,0.224,0.195,northwest,14.8,No
2015/12/01,06:10,0.454,0.269,0.478,0.465,0.443,0.225,0.194,northwest,12.3,No
2015/12/01,06:20,0.455,0.270,0.479,0.463,0.442,0.226,0.196,northwest,11.2,No
2015/12/01,06:30,0.454,0.269,0.482,0.460,0.444,0.225,0.195,northwest,12.2,No
2015/12/01,06:40,0.453,0.268,0.479,0.463,0.444,0.225,0.196,northwest,11.8,No
2015/12/01,06:50,0.453,0.269,0.480,0.462,0.442,0.225,0.196,northwest,10.9,No
2015/12/01,07:00,0.455,0.268,0.481,0.462,0.443,0.225,0.195,northwest,9.6,No
2015/12/01,07:10,0.453,0.268,0.479,0.464,0.444,0.224,0.195,northwest,10.0,No
2015/12/01,07:20,0.453,0.270,0.481,0.462,0.444,0.225,0.195,west-northwest,12.2,No
2015/12/01,07:30,0.457,0.270,0.482,0.461,0.443,0.224,0.194,northwest,12.6,No
2015/12/01,07:40,0.454,0.268,0.479,0.464,0.444,0.225,0.193,west-northwest,14.5,No
2015/12/01,07:50,0.453,0.268,0.480,0.462,0.443,0.225,0.195,northwest,14.2,No
2015/12/01,08:00,0.454,0.268,0.479,0.462,0.443,0.224,0.195,northwest,14.7,No
2015/12/01,08:10,0.452,0.268,0.478,0.464,0.443,0.225,0.194,northwest,15.3,No
2015/12/01,08:20,0.455,0.269,0.483,0.462,0.443,0.225,0.194,northwest,15.8,No
2015/12/01,08:30,0.455,0.270,0.478,0.464,0.444,0.224,0.195,northwest,14.8,No
2015/12/01,08:40,0.453,0.267,0.480,0.459,0.444,0.225,0.195,west-northwest,13.9,No
2015/12/01,08:50,0.455,0.269,0.483,0.462,0.443,0.225,0.195,west-northwest,11.4,No
2015/12/01,09:00,0.454,0.269,0.479,0.459,0.444,0.225,0.194,west-northwest,7.3,No
2015/12/01,09:10,0.453,0.268,0.483,0.463,0.444,0.225,0.195,northwest,5.7,No
2015/12/01,09:20,0.455,0.269,0.480,0.458,0.442,0.224,0.195,west-northwest,4.7,No
2015/12/01,09:30,0.454,0.267,0.479,0.463,0.445,0.224,0.196,northwest,5.8,No
2015/12/01,09:40,0.456,0.269,0.480,0.458,0.440,0.225,0.194,northwest,5.0,No
2015/12/01,09:50,0.452,0.267,0.478,0.460,0.445,0.225,0.195,west-northwest,7.2,No
2015/12/01,10:00,0.455,0.270,0.481,-,0.441,0.225,0.194,northwest,5.8,No
2015/12/01,10:10,0.453,0.267,0.479,-,0.447,0.226,0.196,northwest,7.6,No
2015/12/01,10:20,0.454,0.269,0.480,-,0.441,0.224,0.194,northwest,6.7,No
2015/12/01,10:30,0.450,0.267,0.479,-,0.444,0.225,0.195,northwest,6.3,No
2015/12/01,10:40,0.454,0.268,0.478,-,0.442,0.224,0.194,north-northwest,9.3,No
2015/12/01,10:50,0.452,0.268,0.478,-,0.441,0.225,0.194,north-northwest,9.0,No
2015/12/01,11:00,0.455,0.269,0.478,-,0.446,0.224,0.195,northwest,8.3,No
2015/12/01,11:10,0.454,0.268,0.482,-,0.442,0.226,0.195,northwest,8.1,No
2015/12/01,11:20,0.454,0.269,0.479,-,0.446,0.224,0.196,west-northwest,8.5,No
2015/12/01,11:30,0.456,0.268,0.481,-,0.441,0.226,0.196,west-northwest,7.9,No
2015/12/01,11:40,0.454,0.268,0.476,-,0.446,0.225,0.196,west-northwest,9.2,No
2015/12/01,11:50,0.454,0.268,0.480,-,0.443,0.225,0.195,west-northwest,8.9,No
2015/12/01,12:00,0.454,0.269,0.479,-,0.443,0.225,0.196,west-northwest,7.5,No
2015/12/01,12:10,0.451,0.267,0.477,-,0.445,0.225,0.196,west-northwest,4.9,No
2015/12/01,12:20,0.455,0.268,0.481,-,0.440,0.224,0.195,northwest,7.2,No
2015/12/01,12:30,0.452,0.268,0.477,-,0.446,0.225,0.196,northwest,5.7,No
2015/12/01,12:40,0.456,0.269,0.481,-,0.441,0.224,0.195,northwest,5.6,No
2015/12/01,12:50,0.455,0.270,0.478,-,0.447,0.225,0.196,northwest,4.8,No
2015/12/01,13:00,0.456,0.268,0.482,-,0.443,0.224,0.195,northwest,6.2,No
2015/12/01,13:10,0.457,0.269,0.478,-,0.447,0.225,0.196,northwest,7.4,No
2015/12/01,13:20,0.454,0.268,0.483,-,0.443,0.225,0.195,west,7.7,No
2015/12/01,13:30,0.456,0.269,0.479,-,0.448,0.226,0.195,west-northwest,8.9,No
2015/12/01,13:40,0.453,0.267,0.481,-,0.444,0.224,0.194,west-northwest,7.3,No
2015/12/01,13:50,0.456,0.270,0.477,-,0.446,0.225,0.196,west-northwest,9.2,No
2015/12/01,14:00,0.453,0.266,0.484,-,0.446,0.224,0.197,west-northwest,7.3,No
2015/12/01,14:10,0.457,0.269,0.480,-,0.444,0.225,0.195,west-northwest,6.0,No
2015/12/01,14:20,0.456,0.267,0.483,-,0.447,0.224,0.195,west-northwest,6.0,No
2015/12/01,14:30,0.453,0.268,0.481,-,0.442,0.225,0.196,west-northwest,6.3,No
2015/12/01,14:40,0.458,0.269,0.482,-,0.447,0.224,0.196,northwest,7.2,No
2015/12/01,14:50,0.456,0.270,0.481,-,0.444,0.225,0.195,northwest,6.8,No
2015/12/01,15:00,0.455,0.270,0.481,0.438,0.445,0.224,0.196,northwest,7.5,No
2015/12/01,15:10,0.457,0.269,0.484,0.435,0.444,0.224,0.195,northwest,7.1,No
2015/12/01,15:20,0.455,0.269,0.479,0.437,0.443,0.224,0.196,northwest,6.1,No
2015/12/01,15:30,0.457,0.269,0.482,0.439,0.443,0.225,0.196,west-northwest,6.3,No
2015/12/01,15:40,0.455,0.270,0.482,0.436,0.443,0.225,0.196,west-northwest,6.6,No
2015/12/01,15:50,0.453,0.269,0.481,0.438,0.445,0.225,0.196,west-northwest,6.9,No
2015/12/01,16:00,0.457,0.269,0.482,0.436,0.445,0.224,0.196,west-northwest,6.6,No
2015/12/01,16:10,0.453,0.269,0.480,0.437,0.444,0.225,0.195,west-northwest,7.3,No
2015/12/01,16:20,0.456,0.270,0.484,0.438,0.445,0.225,0.196,northwest,9.2,No
2015/12/01,16:30,0.456,0.268,0.482,0.436,0.444,0.225,0.196,northwest,9.2,No
2015/12/01,16:40,0.454,0.269,0.479,0.435,0.443,0.225,0.196,northwest,8.1,No
2015/12/01,16:50,0.457,0.270,0.483,0.439,0.445,0.224,0.197,northwest,5.8,No
2015/12/01,17:00,0.456,0.269,0.481,0.436,0.445,0.225,0.197,northwest,5.8,No
2015/12/01,17:10,0.454,0.268,0.481,0.437,0.442,0.225,0.196,northwest,8.1,No
2015/12/01,17:20,0.457,0.270,0.482,0.436,0.444,0.225,0.196,northwest,8.6,No
2015/12/01,17:30,0.456,0.269,0.480,0.437,0.443,0.225,0.195,northwest,8.7,No
2015/12/01,17:40,0.455,0.269,0.481,0.437,0.442,0.225,0.196,west-northwest,7.0,No
2015/12/01,17:50,0.459,0.268,0.481,0.438,0.444,0.226,0.196,west-northwest,6.0,No
2015/12/01,18:00,0.456,0.270,0.481,0.435,0.444,0.226,0.195,northwest,5.8,No
2015/12/01,18:10,0.454,0.270,0.480,0.438,0.443,0.226,0.196,northwest,6.7,No
2015/12/01,18:20,0.457,0.269,0.483,0.439,0.443,0.225,0.195,northwest,6.6,No
2015/12/01,18:30,0.455,0.269,0.480,0.436,0.444,0.225,0.196,northwest,6.5,No
2015/12/01,18:40,0.456,0.267,0.484,0.437,0.444,0.225,0.196,northwest,7.1,No
2015/12/01,18:50,0.458,0.268,0.481,0.439,0.442,0.225,0.197,northwest,7.8,No
2015/12/01,19:00,0.456,0.270,0.482,0.438,0.442,0.225,0.196,northwest,7.8,No
2015/12/01,19:10,0.456,0.270,0.484,0.438,0.445,0.225,0.195,northwest,8.8,No
2015/12/01,19:20,0.459,0.269,0.483,0.438,0.443,0.224,0.196,northwest,8.4,No
2015/12/01,19:30,0.456,0.269,0.480,0.438,0.443,0.226,0.196,northwest,9.6,No
2015/12/01,19:40,0.455,0.269,0.482,0.437,0.443,0.225,0.196,north-northwest,9.6,No
2015/12/01,19:50,0.456,0.269,0.482,0.439,0.444,0.226,0.195,north-northwest,10.6,No
2015/12/01,20:00,0.455,0.270,0.480,0.436,0.445,0.225,0.195,north-northwest,10.4,No
2015/12/01,20:10,0.455,0.269,0.482,0.437,0.443,0.225,0.196,north-northwest,8.9,No
2015/12/01,20:20,0.458,0.269,0.483,0.438,0.445,0.225,0.195,north-northwest,8.8,No
2015/12/01,20:30,0.457,0.270,0.481,0.438,0.443,0.225,0.196,north-northwest,10.1,No
2015/12/01,20:40,0.455,0.268,0.482,0.437,0.443,0.225,0.196,north,8.9,No
2015/12/01,20:50,0.456,0.269,0.483,0.438,0.446,0.224,0.197,north,9.2,No
2015/12/01,21:00,0.457,0.269,0.480,0.439,0.443,0.224,0.196,north,9.3,No
2015/12/01,21:10,0.456,0.270,0.481,0.437,0.444,0.225,0.197,north-northwest,8.1,No
2015/12/01,21:20,0.456,0.270,0.484,0.437,0.446,0.225,0.197,north,8.1,No
2015/12/01,21:30,0.456,0.270,0.484,0.439,0.444,0.227,0.196,north,7.4,No
2015/12/01,21:40,0.457,0.269,0.481,0.437,0.444,0.226,0.195,north,6.6,No
2015/12/01,21:50,0.456,0.269,0.485,0.439,0.444,0.224,0.196,north,7.7,No
2015/12/01,22:00,0.456,0.269,0.481,0.439,0.445,0.225,0.195,north,7.6,No
2015/12/01,22:10,0.458,0.269,0.481,0.437,0.443,0.225,0.197,north,8.1,No
2015/12/01,22:20,0.455,0.269,0.483,0.436,0.444,0.225,0.197,north,7.8,No
2015/12/01,22:30,0.456,0.270,0.483,0.439,0.444,0.225,0.196,north,8.1,No
2015/12/01,22:40,0.457,0.269,0.481,0.437,0.444,0.225,0.197,north,8.3,No
2015/12/01,22:50,0.454,0.270,0.482,0.437,0.444,0.227,0.197,north,6.8,No
2015/12/01,23:00,0.456,0.269,0.484,0.437,0.442,0.226,0.198,north,6.7,No
2015/12/01,23:10,0.456,0.268,0.483,0.439,0.443,0.225,0.197,north,5.4,No
2015/12/01,23:20,0.454,0.268,0.482,0.437,0.446,0.226,0.196,north,5.1,No
2015/12/01,23:30,0.454,0.270,0.483,0.437,0.443,0.225,0.197,north,6.7,No
2015/12/01,23:40,0.456,0.270,0.481,0.438,0.444,0.227,0.196,north,7.1,No
2015/12/01,23:50,0.454,0.270,0.482,0.440,0.444,0.227,0.197,north,6.3,No
